AVA025 KJFK-SKCG

Flight info

Callsign AVA025
Flight time 4h 28m
Altitude 34000
Route WAVEY DCT EMJAY Q167 ZJAAY DCT KALDA DCT TUGGR Q101 SKARP DCT IDOLS DCT JAZZI Y319 BRATZ/N0462F360 Y319 URSUS/N0464F350 UP406 PUTUL/N0459F370 UP406 UBSUX DCT VARON VARON2B
Aircraft A320/M-SDE3FGHIRWY/LB1

Departure

Time 2026-05-08 19:43
Airport John F. Kennedy International Airport (KJFK)

Arrival

Time 2026-05-09 00:11
Airport Rafael Nuñez International Airport (SKCG)
Time Latitude Longitude Altitude Speed Heading
2026-05-08 19:26 40.64012 -73.78081 23 ft 0 kts 247°
2026-05-08 19:32 40.64012 -73.78079 23 ft 2 kts 247°
2026-05-08 19:32 40.64022 -73.78047 24 ft 4 kts 247°
2026-05-08 19:33 40.64031 -73.78020 26 ft 3 kts 247°
2026-05-08 19:33 40.64044 -73.77993 25 ft 4 kts 204°
2026-05-08 19:33 40.64068 -73.77992 25 ft 4 kts 154°
2026-05-08 19:33 40.64067 -73.77991 25 ft 4 kts 151°
2026-05-08 19:34 40.64049 -73.77978 23 ft 0 kts 150°
2026-05-08 19:36 40.64048 -73.77977 23 ft 2 kts 150°
2026-05-08 19:36 40.64015 -73.77940 23 ft 6 kts 127°
2026-05-08 19:36 40.63993 -73.77898 25 ft 5 kts 124°
2026-05-08 19:36 40.63972 -73.77864 23 ft 5 kts 137°
2026-05-08 19:37 40.63925 -73.77822 23 ft 8 kts 148°
2026-05-08 19:37 40.63882 -73.77786 23 ft 7 kts 144°
2026-05-08 19:37 40.63849 -73.77755 23 ft 5 kts 144°
2026-05-08 19:37 40.63825 -73.77733 23 ft 3 kts 144°
2026-05-08 19:38 40.63811 -73.77720 23 ft 2 kts 144°
2026-05-08 19:38 40.63807 -73.77715 23 ft 0 kts 144°
2026-05-08 19:38 40.63802 -73.77710 23 ft 5 kts 144°
2026-05-08 19:38 40.63749 -73.77672 21 ft 11 kts 159°
2026-05-08 19:39 40.63653 -73.77616 20 ft 20 kts 137°
2026-05-08 19:39 40.63584 -73.77478 23 ft 16 kts 122°
2026-05-08 19:39 40.63529 -73.77361 23 ft 14 kts 120°
2026-05-08 19:39 40.63483 -73.77259 23 ft 12 kts 121°
2026-05-08 19:40 40.63446 -73.77177 24 ft 9 kts 121°
2026-05-08 19:40 40.63412 -73.77100 22 ft 10 kts 121°
2026-05-08 19:40 40.63378 -73.77026 21 ft 9 kts 121°
2026-05-08 19:40 40.63339 -73.76953 21 ft 13 kts 146°
2026-05-08 19:41 40.63224 -73.76944 22 ft 18 kts 182°
2026-05-08 19:41 40.63097 -73.76973 21 ft 19 kts 200°
2026-05-08 19:41 40.62979 -73.77061 21 ft 19 kts 211°
2026-05-08 19:41 40.62866 -73.77148 22 ft 19 kts 211°
2026-05-08 19:42 40.62823 -73.77230 23 ft 5 kts 292°
2026-05-08 19:42 40.62899 -73.77403 25 ft 54 kts 300°
2026-05-08 19:42 40.63191 -73.78044 29 ft 110 kts 300°
2026-05-08 19:42 40.63661 -73.79100 23 ft 155 kts 299°
2026-05-08 19:43 40.64203 -73.80358 587 ft 155 kts 295°
2026-05-08 19:43 40.64434 -73.81718 1274 ft 155 kts 262°
2026-05-08 19:43 40.63979 -73.82998 1844 ft 160 kts 232°
2026-05-08 19:43 40.63200 -73.84059 2453 ft 161 kts 231°
2026-05-08 19:44 40.62319 -73.84978 3027 ft 169 kts 205°
2026-05-08 19:44 40.61069 -73.85028 3340 ft 200 kts 167°
2026-05-08 19:44 40.59840 -73.83934 3529 ft 232 kts 131°
2026-05-08 19:44 40.59153 -73.81921 3771 ft 256 kts 103°
2026-05-08 19:45 40.58845 -73.79505 4101 ft 280 kts 98°
2026-05-08 19:45 40.58600 -73.76950 4740 ft 289 kts 97°
2026-05-08 19:45 40.58362 -73.74307 5501 ft 293 kts 97°
2026-05-08 19:45 40.58132 -73.71616 6240 ft 298 kts 97°
2026-05-08 19:46 40.57818 -73.68905 6920 ft 302 kts 110°
2026-05-08 19:46 40.56862 -73.66477 7585 ft 299 kts 134°
2026-05-08 19:46 40.53522 -73.63290 8880 ft 302 kts 155°
2026-05-08 19:47 40.51705 -73.61859 9591 ft 306 kts 155°
2026-05-08 19:47 40.50491 -73.60902 10042 ft 309 kts 155°
2026-05-08 19:47 40.48721 -73.59511 10278 ft 329 kts 155°
2026-05-08 19:47 40.46691 -73.57917 10418 ft 351 kts 154°
2026-05-08 19:48 40.44531 -73.56214 10545 ft 373 kts 154°
2026-05-08 19:48 40.42288 -73.54437 10767 ft 388 kts 153°
2026-05-08 19:48 40.39958 -73.52579 11271 ft 395 kts 153°
2026-05-08 19:48 40.37593 -73.50684 11830 ft 401 kts 153°
2026-05-08 19:49 40.35197 -73.48765 12293 ft 408 kts 153°
2026-05-08 19:49 40.32755 -73.46817 12818 ft 414 kts 153°
2026-05-08 19:49 40.30279 -73.44845 13349 ft 419 kts 153°
2026-05-08 19:49 40.27771 -73.42853 13855 ft 424 kts 153°
2026-05-08 19:50 40.25235 -73.40848 14345 ft 428 kts 153°
2026-05-08 19:50 40.22687 -73.38806 14838 ft 432 kts 152°
2026-05-08 19:50 40.20170 -73.36615 15332 ft 436 kts 149°
2026-05-08 19:50 40.17723 -73.34334 15809 ft 440 kts 148°
2026-05-08 19:51 40.15136 -73.32219 16261 ft 437 kts 160°
2026-05-08 19:51 40.12305 -73.30917 16684 ft 428 kts 176°
2026-05-08 19:51 40.09388 -73.30617 17139 ft 416 kts 192°
2026-05-08 19:51 40.06586 -73.31243 17611 ft 404 kts 205°
2026-05-08 19:52 40.04027 -73.32621 18089 ft 393 kts 217°
2026-05-08 19:52 40.01794 -73.34598 18524 ft 384 kts 228°
2026-05-08 19:52 39.99767 -73.36871 18936 ft 385 kts 228°
2026-05-08 19:52 39.97732 -73.39152 19338 ft 387 kts 228°
2026-05-08 19:53 39.95683 -73.41442 19754 ft 389 kts 228°
2026-05-08 19:53 39.93654 -73.43707 20143 ft 391 kts 228°
2026-05-08 19:53 39.91586 -73.46010 20568 ft 391 kts 228°
2026-05-08 19:53 39.89514 -73.48309 20990 ft 392 kts 228°
2026-05-08 19:54 39.87434 -73.50618 21374 ft 394 kts 228°
2026-05-08 19:54 39.85345 -73.52938 21752 ft 396 kts 228°
2026-05-08 19:54 39.83250 -73.55269 22096 ft 397 kts 228°
2026-05-08 19:54 39.81147 -73.57619 22446 ft 399 kts 229°
2026-05-08 19:55 39.79032 -73.59980 22794 ft 402 kts 228°
2026-05-08 19:55 39.76907 -73.62349 23130 ft 403 kts 228°
2026-05-08 19:55 39.74770 -73.64729 23472 ft 405 kts 228°
2026-05-08 19:55 39.72626 -73.67112 23765 ft 406 kts 229°
2026-05-08 19:56 39.70472 -73.69499 24092 ft 407 kts 229°
2026-05-08 19:56 39.68341 -73.71852 24372 ft 408 kts 229°
2026-05-08 19:56 39.66176 -73.74240 24666 ft 410 kts 229°
2026-05-08 19:56 39.64001 -73.76640 24940 ft 411 kts 229°
2026-05-08 19:57 39.61824 -73.79047 25208 ft 412 kts 229°
2026-05-08 19:57 39.59639 -73.81464 25459 ft 413 kts 229°
2026-05-08 19:57 39.57450 -73.83887 25708 ft 415 kts 229°
2026-05-08 19:57 39.55251 -73.86317 25960 ft 416 kts 229°
2026-05-08 19:58 39.53041 -73.88755 26210 ft 417 kts 229°
2026-05-08 19:58 39.50828 -73.91192 26458 ft 419 kts 229°
2026-05-08 19:58 39.48604 -73.93636 26702 ft 420 kts 229°
2026-05-08 19:58 39.46401 -73.96054 26936 ft 421 kts 229°
2026-05-08 19:59 39.44163 -73.98507 27195 ft 422 kts 229°
2026-05-08 19:59 39.41930 -74.00954 27544 ft 420 kts 229°
2026-05-08 19:59 39.39700 -74.03396 27896 ft 419 kts 229°
2026-05-08 19:59 39.37480 -74.05825 28259 ft 418 kts 230°
2026-05-08 20:00 39.35266 -74.08241 28591 ft 416 kts 230°
2026-05-08 20:00 39.33060 -74.10647 28965 ft 414 kts 230°
2026-05-08 20:00 39.30863 -74.13041 29321 ft 413 kts 230°
2026-05-08 20:00 39.28673 -74.15430 29676 ft 412 kts 230°
2026-05-08 20:01 39.26490 -74.17809 30022 ft 410 kts 230°
2026-05-08 20:01 39.24339 -74.20146 30308 ft 409 kts 230°
2026-05-08 20:01 39.22163 -74.22510 30576 ft 409 kts 230°
2026-05-08 20:01 39.19990 -74.24871 30843 ft 408 kts 231°
2026-05-08 20:02 39.17821 -74.27225 31072 ft 407 kts 231°
2026-05-08 20:02 39.15659 -74.29572 31350 ft 406 kts 231°
2026-05-08 20:02 39.13504 -74.31912 31648 ft 405 kts 231°
2026-05-08 20:02 39.11353 -74.34244 31944 ft 404 kts 231°
2026-05-08 20:03 39.09206 -74.36570 32218 ft 403 kts 231°
2026-05-08 20:03 39.07065 -74.38887 32464 ft 402 kts 231°
2026-05-08 20:03 39.04920 -74.41201 32740 ft 402 kts 231°
2026-05-08 20:03 39.02779 -74.43507 33017 ft 401 kts 231°
2026-05-08 20:04 39.00673 -74.45779 33271 ft 400 kts 231°
2026-05-08 20:04 38.98544 -74.48077 33498 ft 399 kts 231°
2026-05-08 20:04 38.96418 -74.50366 33792 ft 398 kts 232°
2026-05-08 20:04 38.94302 -74.52645 33979 ft 397 kts 232°
2026-05-08 20:05 38.90171 -74.57319 34022 ft 394 kts 234°
2026-05-08 20:05 38.86157 -74.62097 34011 ft 394 kts 234°
2026-05-08 20:06 38.82137 -74.66871 34023 ft 394 kts 234°
2026-05-08 20:06 38.78114 -74.71581 33987 ft 393 kts 234°
2026-05-08 20:07 38.74063 -74.76247 34025 ft 392 kts 233°
2026-05-08 20:07 38.69841 -74.80717 34027 ft 395 kts 231°
2026-05-08 20:08 38.65534 -74.85096 34034 ft 395 kts 231°
2026-05-08 20:08 38.61248 -74.89491 34035 ft 394 kts 231°
2026-05-08 20:09 38.56996 -74.93900 34001 ft 393 kts 231°
2026-05-08 20:09 38.52790 -74.98285 34033 ft 392 kts 232°
2026-05-08 20:10 38.48663 -75.02794 34035 ft 389 kts 233°
2026-05-08 20:10 38.44537 -75.07297 34057 ft 393 kts 231°
2026-05-08 20:11 38.40143 -75.11510 34047 ft 397 kts 229°
2026-05-08 20:11 38.35670 -75.15623 34020 ft 396 kts 229°
2026-05-08 20:12 38.31233 -75.19768 34030 ft 395 kts 229°
2026-05-08 20:12 38.26864 -75.23911 34036 ft 394 kts 230°
2026-05-08 20:13 38.22475 -75.28075 34037 ft 394 kts 229°
2026-05-08 20:13 38.18075 -75.32232 34001 ft 394 kts 229°
2026-05-08 20:14 38.13673 -75.36376 34013 ft 394 kts 229°
2026-05-08 20:14 38.09268 -75.40520 34024 ft 394 kts 229°
2026-05-08 20:15 38.04863 -75.44660 34044 ft 395 kts 229°
2026-05-08 20:15 38.00386 -75.48660 34049 ft 397 kts 227°
2026-05-08 20:16 37.95798 -75.52592 34040 ft 399 kts 227°
2026-05-08 20:16 37.91205 -75.56546 34053 ft 399 kts 227°
2026-05-08 20:17 37.86482 -75.60327 34054 ft 413 kts 218°
2026-05-08 20:17 37.83717 -75.61579 34055 ft 433 kts 207°
2026-05-08 20:17 37.80670 -75.62156 34054 ft 454 kts 196°
2026-05-08 20:18 37.77442 -75.61994 34050 ft 470 kts 189°
2026-05-08 20:18 37.74187 -75.61635 34013 ft 470 kts 189°
2026-05-08 20:18 37.67740 -75.61315 34024 ft 452 kts 199°
2026-05-08 20:19 37.64718 -75.61831 34030 ft 440 kts 204°
2026-05-08 20:19 37.61699 -75.62506 34033 ft 440 kts 204°
2026-05-08 20:19 37.55657 -75.63835 34039 ft 441 kts 204°
2026-05-08 20:20 37.49600 -75.65133 34041 ft 442 kts 204°
2026-05-08 20:20 37.43541 -75.66430 34047 ft 442 kts 204°
2026-05-08 20:21 37.37482 -75.67735 34053 ft 442 kts 204°
2026-05-08 20:21 37.31423 -75.69038 34002 ft 442 kts 205°
2026-05-08 20:22 37.25401 -75.70334 34057 ft 442 kts 205°
2026-05-08 20:22 37.20318 -75.71421 34065 ft 442 kts 204°
2026-05-08 20:23 37.13274 -75.72918 34071 ft 442 kts 204°
2026-05-08 20:23 37.07261 -75.74327 34036 ft 430 kts 211°
2026-05-08 20:24 37.04493 -75.75530 34039 ft 414 kts 218°
2026-05-08 20:24 37.01971 -75.77133 34045 ft 402 kts 224°
2026-05-08 20:24 36.97128 -75.80546 34049 ft 402 kts 223°
2026-05-08 20:25 36.92229 -75.83945 34063 ft 403 kts 223°
2026-05-08 20:25 36.87323 -75.87324 34069 ft 403 kts 223°
2026-05-08 20:26 36.82424 -75.90698 34069 ft 402 kts 223°
2026-05-08 20:26 36.77534 -75.94077 34052 ft 401 kts 223°
2026-05-08 20:27 36.72687 -75.97425 34058 ft 401 kts 223°
2026-05-08 20:27 36.67803 -76.00787 34068 ft 401 kts 223°
2026-05-08 20:28 36.62925 -76.04137 34039 ft 400 kts 224°
2026-05-08 20:28 36.58057 -76.07481 34079 ft 400 kts 224°
2026-05-08 20:29 36.53187 -76.10818 34085 ft 399 kts 224°
2026-05-08 20:29 36.48368 -76.14117 34085 ft 397 kts 224°
2026-05-08 20:30 36.43529 -76.17428 34074 ft 397 kts 224°
2026-05-08 20:30 36.38704 -76.20714 34061 ft 394 kts 224°
2026-05-08 20:31 36.33904 -76.23987 34073 ft 393 kts 224°
2026-05-08 20:31 36.29111 -76.27248 34081 ft 393 kts 224°
2026-05-08 20:32 36.24357 -76.30481 34080 ft 392 kts 224°
2026-05-08 20:32 36.19578 -76.33726 34045 ft 391 kts 225°
2026-05-08 20:33 36.14809 -76.36964 34076 ft 390 kts 225°
2026-05-08 20:33 36.10047 -76.40187 34080 ft 390 kts 225°
2026-05-08 20:34 36.05287 -76.43393 34079 ft 389 kts 225°
2026-05-08 20:35 35.98193 -76.48182 34080 ft 389 kts 225°
2026-05-08 20:35 35.93453 -76.51372 34065 ft 388 kts 225°
2026-05-08 20:36 35.88714 -76.54544 34081 ft 388 kts 224°
2026-05-08 20:36 35.83886 -76.57584 34089 ft 391 kts 223°
2026-05-08 20:37 35.79009 -76.60541 34089 ft 391 kts 223°
2026-05-08 20:37 35.74173 -76.63484 34041 ft 390 kts 223°
2026-05-08 20:38 35.69327 -76.66463 34054 ft 389 kts 223°
2026-05-08 20:38 35.64488 -76.69447 34063 ft 389 kts 223°
2026-05-08 20:39 35.59645 -76.72426 34069 ft 389 kts 223°
2026-05-08 20:39 35.54837 -76.75378 34074 ft 389 kts 223°
2026-05-08 20:40 35.49990 -76.78344 34056 ft 390 kts 222°
2026-05-08 20:40 35.45114 -76.81330 34080 ft 392 kts 222°
2026-05-08 20:41 35.40236 -76.84312 34079 ft 392 kts 222°
2026-05-08 20:41 35.35355 -76.87283 34094 ft 392 kts 222°
2026-05-08 20:42 35.30476 -76.90241 34094 ft 391 kts 222°
2026-05-08 20:42 35.25606 -76.93199 34096 ft 390 kts 222°
2026-05-08 20:43 35.20790 -76.96154 34094 ft 389 kts 223°
2026-05-08 20:43 35.15988 -76.99185 34094 ft 388 kts 223°
2026-05-08 20:44 35.12001 -77.01708 34094 ft 388 kts 223°
2026-05-08 20:44 35.07195 -77.04723 34091 ft 389 kts 223°
2026-05-08 20:45 35.02379 -77.07729 34047 ft 389 kts 222°
2026-05-08 20:45 34.97556 -77.10733 34056 ft 389 kts 222°
2026-05-08 20:46 34.91948 -77.14224 34066 ft 390 kts 222°
2026-05-08 20:46 34.87900 -77.16742 34073 ft 390 kts 222°
2026-05-08 20:47 34.83102 -77.19723 34075 ft 390 kts 222°
2026-05-08 20:47 34.78261 -77.22737 34058 ft 392 kts 221°
2026-05-08 20:48 34.73410 -77.25751 34059 ft 392 kts 221°
2026-05-08 20:48 34.68550 -77.28752 34063 ft 392 kts 221°
2026-05-08 20:49 34.63692 -77.31743 34069 ft 391 kts 221°
2026-05-08 20:49 34.58869 -77.34720 34076 ft 391 kts 221°
2026-05-08 20:50 34.54013 -77.37715 34050 ft 392 kts 220°
2026-05-08 20:50 34.49072 -77.40610 34056 ft 404 kts 213°
2026-05-08 20:50 34.46301 -77.41531 34057 ft 423 kts 204°
2026-05-08 20:51 34.43383 -77.42108 34063 ft 426 kts 204°
2026-05-08 20:51 34.37527 -77.43233 34067 ft 426 kts 204°
2026-05-08 20:52 34.31667 -77.44365 34060 ft 427 kts 203°
2026-05-08 20:52 34.25788 -77.45503 34075 ft 428 kts 202°
2026-05-08 20:53 34.19942 -77.46641 34084 ft 428 kts 203°
2026-05-08 20:53 34.14068 -77.47784 34079 ft 427 kts 203°
2026-05-08 20:54 34.08199 -77.48927 34038 ft 428 kts 202°
2026-05-08 20:54 34.02327 -77.50077 34049 ft 428 kts 202°
2026-05-08 20:55 33.96453 -77.51219 34050 ft 427 kts 202°
2026-05-08 20:55 33.90582 -77.52358 34053 ft 427 kts 202°
2026-05-08 20:56 33.84746 -77.53485 34062 ft 428 kts 202°
2026-05-08 20:56 33.78866 -77.54618 34037 ft 428 kts 201°
2026-05-08 20:57 33.72976 -77.55754 34044 ft 429 kts 201°
2026-05-08 20:57 33.67076 -77.56893 34047 ft 429 kts 201°
2026-05-08 20:58 33.61180 -77.58029 34052 ft 429 kts 201°
2026-05-08 20:58 33.55301 -77.59147 34043 ft 434 kts 201°
2026-05-08 20:59 33.49292 -77.60155 34057 ft 437 kts 199°
2026-05-08 20:59 33.43268 -77.61112 34059 ft 436 kts 199°
2026-05-08 21:00 33.37255 -77.62086 34060 ft 436 kts 200°
2026-05-08 21:00 33.31251 -77.63087 34025 ft 436 kts 200°
2026-05-08 21:01 33.25279 -77.64091 34030 ft 437 kts 200°
2026-05-08 21:01 33.19254 -77.65097 34034 ft 438 kts 200°
2026-05-08 21:02 33.13217 -77.66097 34035 ft 438 kts 200°
2026-05-08 21:02 33.07169 -77.67094 34026 ft 439 kts 200°
2026-05-08 21:03 33.01137 -77.68092 34042 ft 437 kts 199°
2026-05-08 21:03 32.95158 -77.69080 34059 ft 436 kts 199°
2026-05-08 21:04 32.89154 -77.70071 34060 ft 435 kts 199°
2026-05-08 21:04 32.83154 -77.71047 34059 ft 435 kts 199°
2026-05-08 21:05 32.77165 -77.72037 34061 ft 434 kts 199°
2026-05-08 21:05 32.71182 -77.73031 34053 ft 434 kts 199°
2026-05-08 21:06 32.65199 -77.74021 34051 ft 434 kts 199°
2026-05-08 21:06 32.59253 -77.75000 34049 ft 434 kts 199°
2026-05-08 21:07 32.53269 -77.75974 34026 ft 434 kts 199°
2026-05-08 21:07 32.47291 -77.76940 34044 ft 433 kts 199°
2026-05-08 21:08 32.41329 -77.77910 34047 ft 432 kts 199°
2026-05-08 21:08 32.35375 -77.78882 34048 ft 432 kts 199°
2026-05-08 21:09 32.29423 -77.79857 34003 ft 432 kts 199°
2026-05-08 21:09 32.23519 -77.80819 34014 ft 431 kts 199°
2026-05-08 21:10 32.17576 -77.81783 34028 ft 431 kts 199°
2026-05-08 21:10 32.11633 -77.82743 34031 ft 431 kts 199°
2026-05-08 21:11 32.05694 -77.83708 34034 ft 431 kts 199°
2026-05-08 21:11 31.99760 -77.84665 33997 ft 430 kts 199°
2026-05-08 21:12 31.93864 -77.85617 34006 ft 431 kts 199°
2026-05-08 21:12 31.87928 -77.86571 34015 ft 430 kts 199°
2026-05-08 21:13 31.81995 -77.87534 34027 ft 430 kts 199°
2026-05-08 21:13 31.76061 -77.88494 34000 ft 430 kts 199°
2026-05-08 21:14 31.70119 -77.89449 34001 ft 432 kts 199°
2026-05-08 21:14 31.64204 -77.90393 34009 ft 432 kts 199°
2026-05-08 21:15 31.58240 -77.91345 34018 ft 433 kts 199°
2026-05-08 21:15 31.52273 -77.92295 34025 ft 433 kts 199°
2026-05-08 21:16 31.46297 -77.93255 33991 ft 434 kts 198°
2026-05-08 21:16 31.40310 -77.94211 34003 ft 435 kts 198°
2026-05-08 21:17 31.34351 -77.95167 34008 ft 435 kts 198°
2026-05-08 21:17 31.28351 -77.96127 34021 ft 435 kts 198°
2026-05-08 21:18 31.22348 -77.97085 34005 ft 435 kts 198°
2026-05-08 21:18 31.16349 -77.98032 34009 ft 435 kts 198°
2026-05-08 21:19 31.10351 -77.98980 34016 ft 435 kts 198°
2026-05-08 21:19 31.04351 -77.99935 34024 ft 435 kts 198°
2026-05-08 21:20 30.98391 -78.00870 34030 ft 435 kts 198°
2026-05-08 21:20 30.92391 -78.01821 34004 ft 436 kts 197°
2026-05-08 21:21 30.86376 -78.02773 34000 ft 437 kts 197°
2026-05-08 21:21 30.80348 -78.03721 34004 ft 438 kts 197°
2026-05-08 21:22 30.74313 -78.04667 34016 ft 438 kts 197°
2026-05-08 21:22 30.68274 -78.05629 33976 ft 438 kts 197°
2026-05-08 21:23 30.62248 -78.06578 34004 ft 441 kts 197°
2026-05-08 21:23 30.56166 -78.07529 34009 ft 441 kts 197°
2026-05-08 21:24 30.50078 -78.08478 34014 ft 441 kts 197°
2026-05-08 21:24 30.43992 -78.09426 34018 ft 441 kts 197°
2026-05-08 21:25 30.37907 -78.10386 33998 ft 441 kts 197°
2026-05-08 21:25 30.31867 -78.11366 34005 ft 441 kts 197°
2026-05-08 21:26 30.25785 -78.12351 34011 ft 442 kts 197°
2026-05-08 21:26 30.19696 -78.13329 34013 ft 442 kts 197°
2026-05-08 21:27 30.13604 -78.14301 34017 ft 442 kts 197°
2026-05-08 21:27 30.07515 -78.15270 34017 ft 442 kts 197°
2026-05-08 21:28 30.01428 -78.16245 34022 ft 442 kts 197°
2026-05-08 21:28 29.95380 -78.17217 34022 ft 442 kts 197°
2026-05-08 21:29 29.89296 -78.18198 34019 ft 442 kts 197°
2026-05-08 21:29 29.83207 -78.19171 33986 ft 442 kts 197°
2026-05-08 21:30 29.77098 -78.20139 33991 ft 444 kts 197°
2026-05-08 21:30 29.70975 -78.21109 33997 ft 445 kts 197°
2026-05-08 21:31 29.64880 -78.22077 34002 ft 445 kts 197°
2026-05-08 21:31 29.58740 -78.23057 33974 ft 446 kts 197°
2026-05-08 21:32 29.52589 -78.24032 33985 ft 447 kts 197°
2026-05-08 21:32 29.46420 -78.25009 33995 ft 448 kts 197°
2026-05-08 21:33 29.40241 -78.25989 33999 ft 448 kts 197°
2026-05-08 21:33 29.34097 -78.26959 34000 ft 449 kts 197°
2026-05-08 21:34 29.27909 -78.27933 33981 ft 449 kts 197°
2026-05-08 21:34 29.21709 -78.28908 33991 ft 450 kts 197°
2026-05-08 21:35 29.15509 -78.29881 33997 ft 450 kts 197°
2026-05-08 21:35 29.09304 -78.30865 34002 ft 450 kts 197°
2026-05-08 21:36 29.03100 -78.31844 34008 ft 450 kts 197°
2026-05-08 21:36 28.96925 -78.32808 33981 ft 451 kts 197°
2026-05-08 21:37 28.90693 -78.33772 33985 ft 452 kts 197°
2026-05-08 21:37 28.84454 -78.34747 33989 ft 453 kts 197°
2026-05-08 21:38 28.78215 -78.35738 33992 ft 453 kts 197°
2026-05-08 21:38 28.71963 -78.36721 33972 ft 454 kts 196°
2026-05-08 21:39 28.65704 -78.37688 33984 ft 454 kts 196°
2026-05-08 21:39 28.59480 -78.38642 33991 ft 455 kts 196°
2026-05-08 21:40 28.53212 -78.39617 33996 ft 455 kts 196°
2026-05-08 21:40 28.46946 -78.40605 34001 ft 455 kts 196°
2026-05-08 21:41 28.37540 -78.42064 33988 ft 455 kts 196°
2026-05-08 21:41 28.31265 -78.43027 33992 ft 455 kts 196°
2026-05-08 21:42 28.25031 -78.43989 33997 ft 455 kts 196°
2026-05-08 21:42 28.18754 -78.44961 34007 ft 455 kts 196°
2026-05-08 21:43 28.12476 -78.45927 33984 ft 456 kts 195°
2026-05-08 21:43 28.06191 -78.46899 33988 ft 456 kts 195°
2026-05-08 21:44 27.99898 -78.47874 33996 ft 457 kts 195°
2026-05-08 21:44 27.93641 -78.48829 34000 ft 457 kts 195°
2026-05-08 21:45 27.87340 -78.49786 33977 ft 457 kts 195°
2026-05-08 21:45 27.81032 -78.50758 33985 ft 458 kts 195°
2026-05-08 21:46 27.74720 -78.51741 33989 ft 458 kts 195°
2026-05-08 21:46 27.68394 -78.52711 33991 ft 459 kts 195°
2026-05-08 21:47 27.62106 -78.53665 33998 ft 459 kts 195°
2026-05-08 21:47 27.55774 -78.54629 33972 ft 459 kts 194°
2026-05-08 21:48 27.49432 -78.55596 33980 ft 460 kts 194°
2026-05-08 21:48 27.43083 -78.56566 33987 ft 461 kts 194°
2026-05-08 21:49 27.36725 -78.57535 33995 ft 461 kts 194°
2026-05-08 21:49 27.30405 -78.58494 34001 ft 461 kts 194°
2026-05-08 21:50 27.24039 -78.59461 34001 ft 461 kts 194°
2026-05-08 21:50 27.17675 -78.60425 34003 ft 462 kts 194°
2026-05-08 21:51 27.11308 -78.61387 34003 ft 462 kts 194°
2026-05-08 21:51 27.04944 -78.62351 34004 ft 462 kts 194°
2026-05-08 21:52 26.98619 -78.63307 33988 ft 462 kts 194°
2026-05-08 21:52 26.92245 -78.64263 33990 ft 462 kts 194°
2026-05-08 21:53 26.85868 -78.65218 33991 ft 462 kts 194°
2026-05-08 21:53 26.79491 -78.66182 33995 ft 463 kts 194°
2026-05-08 21:54 26.73112 -78.67155 33995 ft 463 kts 194°
2026-05-08 21:54 26.66768 -78.68109 34004 ft 463 kts 194°
2026-05-08 21:55 26.60376 -78.69058 34004 ft 464 kts 194°
2026-05-08 21:56 26.50780 -78.70492 34008 ft 464 kts 194°
2026-05-08 21:56 26.44372 -78.71443 34009 ft 464 kts 194°
2026-05-08 21:57 26.37964 -78.72392 33990 ft 465 kts 194°
2026-05-08 21:57 26.31550 -78.73347 33992 ft 465 kts 194°
2026-05-08 21:58 26.25169 -78.74298 33992 ft 466 kts 194°
2026-05-08 21:58 26.18740 -78.75249 33994 ft 466 kts 194°
2026-05-08 21:59 26.12311 -78.76196 33978 ft 466 kts 193°
2026-05-08 21:59 26.05872 -78.77141 33982 ft 467 kts 193°
2026-05-08 22:00 25.99433 -78.78090 33987 ft 467 kts 193°
2026-05-08 22:00 25.93028 -78.79030 33992 ft 468 kts 193°
2026-05-08 22:01 25.86573 -78.79980 33997 ft 468 kts 193°
2026-05-08 22:01 25.80123 -78.80924 33985 ft 468 kts 193°
2026-05-08 22:02 25.73663 -78.81865 33990 ft 468 kts 193°
2026-05-08 22:02 25.67250 -78.82814 33994 ft 468 kts 193°
2026-05-08 22:03 25.60788 -78.83770 33995 ft 468 kts 193°
2026-05-08 22:03 25.54323 -78.84716 33997 ft 469 kts 193°
2026-05-08 22:04 25.47858 -78.85652 33986 ft 469 kts 193°
2026-05-08 22:04 25.41385 -78.86591 33989 ft 469 kts 193°
2026-05-08 22:05 25.34956 -78.87532 34005 ft 469 kts 193°
2026-05-08 22:05 25.28481 -78.88475 33993 ft 469 kts 193°
2026-05-08 22:06 25.21958 -78.89425 33992 ft 469 kts 192°
2026-05-08 22:06 25.15524 -78.90357 33988 ft 470 kts 192°
2026-05-08 22:07 25.09040 -78.91296 33998 ft 470 kts 192°
2026-05-08 22:07 25.02555 -78.92238 33988 ft 470 kts 192°
2026-05-08 22:08 24.96107 -78.93175 33991 ft 470 kts 192°
2026-05-08 22:08 24.89616 -78.94116 33980 ft 471 kts 192°
2026-05-08 22:09 24.83123 -78.95062 33989 ft 471 kts 192°
2026-05-08 22:09 24.76618 -78.95996 33984 ft 472 kts 192°
2026-05-08 22:10 24.70150 -78.96920 33991 ft 472 kts 192°
2026-05-08 22:10 24.63639 -78.97859 34093 ft 472 kts 192°
2026-05-08 22:10 24.60382 -78.98329 34368 ft 471 kts 192°
2026-05-08 22:11 24.57134 -78.98798 34593 ft 471 kts 192°
2026-05-08 22:11 24.53886 -78.99268 34822 ft 471 kts 192°
2026-05-08 22:11 24.50637 -78.99737 35056 ft 471 kts 192°
2026-05-08 22:11 24.47394 -79.00202 35291 ft 470 kts 191°
2026-05-08 22:12 24.44153 -79.00665 35521 ft 469 kts 191°
2026-05-08 22:12 24.40915 -79.01128 35742 ft 469 kts 191°
2026-05-08 22:12 24.37684 -79.01592 35963 ft 468 kts 191°
2026-05-08 22:12 24.34455 -79.02055 36173 ft 468 kts 191°
2026-05-08 22:13 24.31275 -79.02509 36379 ft 467 kts 191°
2026-05-08 22:13 24.28050 -79.02970 36580 ft 467 kts 191°
2026-05-08 22:13 24.24834 -79.03430 36777 ft 466 kts 191°
2026-05-08 22:13 24.21616 -79.03889 36959 ft 466 kts 191°
2026-05-08 22:14 24.18400 -79.04348 37002 ft 466 kts 191°
2026-05-08 22:14 24.11973 -79.05271 37000 ft 466 kts 191°
2026-05-08 22:15 24.05552 -79.06183 37000 ft 465 kts 192°
2026-05-08 22:15 23.99138 -79.06663 36987 ft 470 kts 179°
2026-05-08 22:16 23.92636 -79.05508 37000 ft 475 kts 173°
2026-05-08 22:16 23.86138 -79.04211 37002 ft 475 kts 173°
2026-05-08 22:17 23.79630 -79.02935 37005 ft 475 kts 173°
2026-05-08 22:17 23.73118 -79.01655 37008 ft 476 kts 173°
2026-05-08 22:18 23.66603 -79.00366 36996 ft 476 kts 172°
2026-05-08 22:18 23.60134 -78.99084 37001 ft 476 kts 172°
2026-05-08 22:19 23.53615 -78.97800 37008 ft 476 kts 172°
2026-05-08 22:19 23.47096 -78.96515 37014 ft 476 kts 172°
2026-05-08 22:20 23.40577 -78.95234 37013 ft 476 kts 172°
2026-05-08 22:20 23.35160 -78.94169 37004 ft 476 kts 172°
2026-05-08 22:21 23.28644 -78.92889 37014 ft 476 kts 172°
2026-05-08 22:21 23.21064 -78.91409 37014 ft 476 kts 172°
2026-05-08 22:22 23.14545 -78.90130 37014 ft 476 kts 172°
2026-05-08 22:22 23.09129 -78.89062 37010 ft 476 kts 172°
2026-05-08 22:23 23.02607 -78.87777 37007 ft 476 kts 172°
2026-05-08 22:23 22.96089 -78.86499 37012 ft 476 kts 172°
2026-05-08 22:24 22.89570 -78.85224 37007 ft 476 kts 172°
2026-05-08 22:24 22.83051 -78.83949 37009 ft 476 kts 172°
2026-05-08 22:25 22.76574 -78.82688 37009 ft 476 kts 172°
2026-05-08 22:25 22.70055 -78.81416 36999 ft 476 kts 172°
2026-05-08 22:26 22.63534 -78.80147 37007 ft 476 kts 172°
2026-05-08 22:26 22.57011 -78.78882 37004 ft 476 kts 172°
2026-05-08 22:27 22.50490 -78.77615 37001 ft 476 kts 172°
2026-05-08 22:27 22.43967 -78.76341 37004 ft 476 kts 172°
2026-05-08 22:28 22.37446 -78.75077 36998 ft 476 kts 171°
2026-05-08 22:28 22.30967 -78.73824 36994 ft 476 kts 171°
2026-05-08 22:29 22.24442 -78.72564 36997 ft 476 kts 171°
2026-05-08 22:29 22.17917 -78.71295 36991 ft 477 kts 171°
2026-05-08 22:30 22.11390 -78.70026 36992 ft 477 kts 171°
2026-05-08 22:30 22.04862 -78.68770 36985 ft 477 kts 171°
2026-05-08 22:31 21.98330 -78.67515 36986 ft 477 kts 171°
2026-05-08 22:31 21.91802 -78.66251 36982 ft 477 kts 171°
2026-05-08 22:32 21.85321 -78.65008 36979 ft 476 kts 171°
2026-05-08 22:32 21.78794 -78.63754 36979 ft 476 kts 171°
2026-05-08 22:33 21.72264 -78.62493 36981 ft 476 kts 171°
2026-05-08 22:33 21.65740 -78.61241 36971 ft 476 kts 171°
2026-05-08 22:34 21.59255 -78.59997 36972 ft 476 kts 171°
2026-05-08 22:34 21.52690 -78.58736 36970 ft 476 kts 171°
2026-05-08 22:35 21.46208 -78.57495 36975 ft 476 kts 171°
2026-05-08 22:35 21.39687 -78.56247 36960 ft 476 kts 171°
2026-05-08 22:36 21.33172 -78.55002 36970 ft 475 kts 171°
2026-05-08 22:36 21.26669 -78.53756 36976 ft 474 kts 171°
2026-05-08 22:37 21.20176 -78.52517 36978 ft 474 kts 171°
2026-05-08 22:37 21.13685 -78.51287 36976 ft 473 kts 171°
2026-05-08 22:38 21.07245 -78.50059 36972 ft 473 kts 171°
2026-05-08 22:38 21.00760 -78.48822 36974 ft 473 kts 171°
2026-05-08 22:39 20.94278 -78.47586 36974 ft 473 kts 171°
2026-05-08 22:39 20.87793 -78.46358 36975 ft 473 kts 171°
2026-05-08 22:40 20.81313 -78.45138 36974 ft 473 kts 171°
2026-05-08 22:40 20.74874 -78.43920 36974 ft 473 kts 171°
2026-05-08 22:41 20.68396 -78.42680 36975 ft 473 kts 171°
2026-05-08 22:41 20.61918 -78.41450 36975 ft 473 kts 171°
2026-05-08 22:42 20.55442 -78.40228 36975 ft 473 kts 171°
2026-05-08 22:42 20.48968 -78.39005 36975 ft 472 kts 171°
2026-05-08 22:43 20.42495 -78.37784 36977 ft 472 kts 171°
2026-05-08 22:43 20.36066 -78.36569 36973 ft 472 kts 171°
2026-05-08 22:44 20.29591 -78.35346 36974 ft 473 kts 171°
2026-05-08 22:44 20.23115 -78.34132 36977 ft 473 kts 171°
2026-05-08 22:45 20.16636 -78.32911 36977 ft 473 kts 170°
2026-05-08 22:45 20.10161 -78.31682 36978 ft 473 kts 171°
2026-05-08 22:46 20.03729 -78.30470 36980 ft 473 kts 170°
2026-05-08 22:46 19.97251 -78.29255 36979 ft 473 kts 170°
2026-05-08 22:47 19.90805 -78.27869 36980 ft 473 kts 168°
2026-05-08 22:47 19.84386 -78.26314 36978 ft 473 kts 167°
2026-05-08 22:48 19.77969 -78.24782 36978 ft 473 kts 168°
2026-05-08 22:48 19.71578 -78.23317 36980 ft 473 kts 168°
2026-05-08 22:49 19.65145 -78.21858 36980 ft 473 kts 168°
2026-05-08 22:49 19.55508 -78.19647 36979 ft 472 kts 168°
2026-05-08 22:50 19.49084 -78.18174 36973 ft 472 kts 168°
2026-05-08 22:50 19.42658 -78.16698 36974 ft 472 kts 168°
2026-05-08 22:51 19.36278 -78.15234 36978 ft 472 kts 168°
2026-05-08 22:51 19.29857 -78.13767 36978 ft 472 kts 168°
2026-05-08 22:52 19.23435 -78.12297 36977 ft 472 kts 168°
2026-05-08 22:52 19.17010 -78.10841 36976 ft 472 kts 168°
2026-05-08 22:53 19.10590 -78.09377 36971 ft 472 kts 168°
2026-05-08 22:53 19.04173 -78.07908 36973 ft 472 kts 168°
2026-05-08 22:54 18.97795 -78.06453 36973 ft 472 kts 168°
2026-05-08 22:54 18.91379 -78.04997 36974 ft 472 kts 168°
2026-05-08 22:55 18.84959 -78.03542 36977 ft 472 kts 168°
2026-05-08 22:55 18.78544 -78.02085 36973 ft 472 kts 168°
2026-05-08 22:56 18.72171 -78.00638 36975 ft 472 kts 168°
2026-05-08 22:56 18.65760 -77.99183 36970 ft 471 kts 168°
2026-05-08 22:57 18.59345 -77.97729 36966 ft 471 kts 168°
2026-05-08 22:57 18.52933 -77.96278 36962 ft 471 kts 168°
2026-05-08 22:58 18.46519 -77.94830 36961 ft 471 kts 168°
2026-05-08 22:58 18.40150 -77.93381 36961 ft 472 kts 168°
2026-05-08 22:59 18.33732 -77.91929 36969 ft 471 kts 168°
2026-05-08 22:59 18.27318 -77.90481 36990 ft 471 kts 168°
2026-05-08 23:00 18.20913 -77.89030 36990 ft 471 kts 168°
2026-05-08 23:00 18.14503 -77.87586 36981 ft 471 kts 168°
2026-05-08 23:01 18.08136 -77.86156 36984 ft 471 kts 168°
2026-05-08 23:01 18.01728 -77.84721 36969 ft 471 kts 168°
2026-05-08 23:02 17.95309 -77.83273 36956 ft 472 kts 168°
2026-05-08 23:02 17.88879 -77.81821 36962 ft 473 kts 168°
2026-05-08 23:03 17.82437 -77.80377 36964 ft 474 kts 168°
2026-05-08 23:03 17.75995 -77.78928 36966 ft 474 kts 168°
2026-05-08 23:04 17.69545 -77.77475 36966 ft 474 kts 168°
2026-05-08 23:04 17.63140 -77.76038 36955 ft 474 kts 168°
2026-05-08 23:05 17.56688 -77.74594 36963 ft 474 kts 168°
2026-05-08 23:05 17.50236 -77.73142 36960 ft 474 kts 168°
2026-05-08 23:06 17.43789 -77.71701 36957 ft 474 kts 168°
2026-05-08 23:06 17.37331 -77.70259 36962 ft 474 kts 168°
2026-05-08 23:07 17.30884 -77.68821 36969 ft 474 kts 168°
2026-05-08 23:07 17.24485 -77.67398 36973 ft 473 kts 168°
2026-05-08 23:08 17.18054 -77.65963 36971 ft 472 kts 168°
2026-05-08 23:08 17.11630 -77.64529 36969 ft 472 kts 168°
2026-05-08 23:09 17.05207 -77.63098 36968 ft 472 kts 168°
2026-05-08 23:09 16.98789 -77.61669 36966 ft 472 kts 168°
2026-05-08 23:10 16.92420 -77.60253 36969 ft 471 kts 168°
2026-05-08 23:10 16.86008 -77.58827 36970 ft 471 kts 168°
2026-05-08 23:11 16.79601 -77.57404 36961 ft 471 kts 168°
2026-05-08 23:11 16.73192 -77.55978 36963 ft 471 kts 168°
2026-05-08 23:12 16.66780 -77.54550 36954 ft 471 kts 168°
2026-05-08 23:12 16.60367 -77.53125 36964 ft 471 kts 168°
2026-05-08 23:13 16.54003 -77.51717 36959 ft 471 kts 168°
2026-05-08 23:13 16.47597 -77.50304 36963 ft 470 kts 168°
2026-05-08 23:14 16.41194 -77.48894 36966 ft 470 kts 168°
2026-05-08 23:14 16.34797 -77.47485 36955 ft 470 kts 168°
2026-05-08 23:15 16.28399 -77.46066 36965 ft 469 kts 168°
2026-05-08 23:15 16.22058 -77.44662 36967 ft 469 kts 168°
2026-05-08 23:16 16.15684 -77.43251 36969 ft 468 kts 168°
2026-05-08 23:16 16.09313 -77.41846 36962 ft 468 kts 168°
2026-05-08 23:17 16.02961 -77.40448 36940 ft 467 kts 168°
2026-05-08 23:17 15.96656 -77.39065 36943 ft 465 kts 168°
2026-05-08 23:18 15.90311 -77.37763 36939 ft 464 kts 169°
2026-05-08 23:18 15.83967 -77.36534 36939 ft 464 kts 169°
2026-05-08 23:19 15.77618 -77.35300 36943 ft 464 kts 169°
2026-05-08 23:19 15.71267 -77.34033 36945 ft 465 kts 169°
2026-05-08 23:20 15.64960 -77.32764 36948 ft 465 kts 169°
2026-05-08 23:20 15.58611 -77.31492 36955 ft 465 kts 169°
2026-05-08 23:21 15.52264 -77.30231 36953 ft 464 kts 169°
2026-05-08 23:21 15.45923 -77.28972 36954 ft 464 kts 169°
2026-05-08 23:22 15.39590 -77.27722 36947 ft 464 kts 170°
2026-05-08 23:22 15.33252 -77.26472 36949 ft 463 kts 169°
2026-05-08 23:23 15.26962 -77.25221 36950 ft 463 kts 170°
2026-05-08 23:23 15.20634 -77.23966 36954 ft 463 kts 170°
2026-05-08 23:24 15.14309 -77.22722 36956 ft 462 kts 171°
2026-05-08 23:24 15.07988 -77.21473 36946 ft 463 kts 171°
2026-05-08 23:25 15.01660 -77.20214 36939 ft 463 kts 169°
2026-05-08 23:25 14.95330 -77.18950 36940 ft 463 kts 170°
2026-05-08 23:26 14.89047 -77.17676 36942 ft 463 kts 170°
2026-05-08 23:26 14.82725 -77.16398 36946 ft 463 kts 170°
2026-05-08 23:27 14.76413 -77.15121 36943 ft 462 kts 170°
2026-05-08 23:27 14.70099 -77.13849 36943 ft 462 kts 170°
2026-05-08 23:28 14.63789 -77.12580 36942 ft 462 kts 169°
2026-05-08 23:28 14.57522 -77.11329 36940 ft 462 kts 169°
2026-05-08 23:29 14.51215 -77.10057 36938 ft 462 kts 170°
2026-05-08 23:29 14.44911 -77.08795 36938 ft 461 kts 170°
2026-05-08 23:30 14.38613 -77.07535 36940 ft 461 kts 171°
2026-05-08 23:30 14.32320 -77.06270 36940 ft 461 kts 169°
2026-05-08 23:31 14.26068 -77.05016 36937 ft 461 kts 170°
2026-05-08 23:31 14.19773 -77.03755 36938 ft 461 kts 171°
2026-05-08 23:32 14.13482 -77.02500 36934 ft 461 kts 170°
2026-05-08 23:32 14.07189 -77.01238 36933 ft 461 kts 170°
2026-05-08 23:33 14.00898 -76.99978 36931 ft 461 kts 170°
2026-05-08 23:33 13.94602 -76.98719 36926 ft 461 kts 171°
2026-05-08 23:34 13.88351 -76.97474 36927 ft 461 kts 170°
2026-05-08 23:34 13.82059 -76.96220 36931 ft 460 kts 170°
2026-05-08 23:35 13.75768 -76.94964 36929 ft 460 kts 170°
2026-05-08 23:35 13.69485 -76.93711 36929 ft 460 kts 170°
2026-05-08 23:36 13.63202 -76.92463 36926 ft 460 kts 171°
2026-05-08 23:36 13.56918 -76.91215 36927 ft 460 kts 169°
2026-05-08 23:37 13.50677 -76.89969 36922 ft 460 kts 170°
2026-05-08 23:37 13.44402 -76.88718 36925 ft 459 kts 169°
2026-05-08 23:38 13.38123 -76.87466 36924 ft 459 kts 170°
2026-05-08 23:38 13.31849 -76.86218 36923 ft 459 kts 169°
2026-05-08 23:39 13.25571 -76.84971 36915 ft 460 kts 170°
2026-05-08 23:39 13.19292 -76.83726 36914 ft 460 kts 170°
2026-05-08 23:40 13.13012 -76.82480 36915 ft 460 kts 170°
2026-05-08 23:40 13.06780 -76.81238 36915 ft 459 kts 169°
2026-05-08 23:41 13.00506 -76.79991 36914 ft 459 kts 169°
2026-05-08 23:41 12.94233 -76.78749 36915 ft 459 kts 170°
2026-05-08 23:42 12.87965 -76.77507 36917 ft 459 kts 169°
2026-05-08 23:42 12.81699 -76.76272 36910 ft 459 kts 170°
2026-05-08 23:43 12.75431 -76.75029 36910 ft 459 kts 169°
2026-05-08 23:43 12.69206 -76.73600 36906 ft 460 kts 161°
2026-05-08 23:44 12.63541 -76.70657 36905 ft 461 kts 150°
2026-05-08 23:44 12.58022 -76.67293 36905 ft 462 kts 150°
2026-05-08 23:45 12.52490 -76.63952 36900 ft 462 kts 150°
2026-05-08 23:45 12.46957 -76.60613 36900 ft 462 kts 150°
2026-05-08 23:46 12.41422 -76.57269 36900 ft 462 kts 151°
2026-05-08 23:46 12.35891 -76.53916 36901 ft 462 kts 151°
2026-05-08 23:47 12.30397 -76.50586 36905 ft 462 kts 150°
2026-05-08 23:47 12.24859 -76.47240 36895 ft 463 kts 152°
2026-05-08 23:48 12.19311 -76.43891 36898 ft 463 kts 151°
2026-05-08 23:48 12.13760 -76.40541 36892 ft 464 kts 150°
2026-05-08 23:49 12.08206 -76.37191 36891 ft 464 kts 152°
2026-05-08 23:49 12.02653 -76.33840 36895 ft 463 kts 150°
2026-05-08 23:50 11.97141 -76.30508 36896 ft 463 kts 150°
2026-05-08 23:50 11.91592 -76.27162 36896 ft 463 kts 152°
2026-05-08 23:51 11.86044 -76.23825 36897 ft 463 kts 150°
2026-05-08 23:51 11.81430 -76.21053 36894 ft 463 kts 151°
2026-05-08 23:52 11.75882 -76.17717 36893 ft 463 kts 151°
2026-05-08 23:52 11.69436 -76.13839 36870 ft 463 kts 150°
2026-05-08 23:53 11.67562 -76.12708 36702 ft 463 kts 152°
2026-05-08 23:53 11.63884 -76.10493 36321 ft 464 kts 150°
2026-05-08 23:53 11.62002 -76.09359 35790 ft 466 kts 151°
2026-05-08 23:53 11.59197 -76.07670 34956 ft 470 kts 151°
2026-05-08 23:54 11.56401 -76.05994 34078 ft 475 kts 150°
2026-05-08 23:54 11.53531 -76.04276 33052 ft 481 kts 149°
2026-05-08 23:54 11.50628 -76.02540 32072 ft 485 kts 149°
2026-05-08 23:55 11.44747 -75.99015 30113 ft 492 kts 147°
2026-05-08 23:55 11.41798 -75.97247 29103 ft 492 kts 147°
2026-05-08 23:55 11.38836 -75.95470 27948 ft 495 kts 146°
2026-05-08 23:55 11.35864 -75.93685 26835 ft 497 kts 147°
2026-05-08 23:56 11.32886 -75.91896 25718 ft 498 kts 147°
2026-05-08 23:56 11.29901 -75.90102 24740 ft 496 kts 147°
2026-05-08 23:56 11.26978 -75.88348 23849 ft 493 kts 146°
2026-05-08 23:56 11.24033 -75.86582 22897 ft 489 kts 147°
2026-05-08 23:57 11.21118 -75.84839 22015 ft 483 kts 147°
2026-05-08 23:57 11.18237 -75.83117 21191 ft 477 kts 147°
2026-05-08 23:57 11.15390 -75.81415 20401 ft 471 kts 147°
2026-05-08 23:57 11.12579 -75.79738 19649 ft 465 kts 147°
2026-05-08 23:58 11.09803 -75.78079 18912 ft 460 kts 148°
2026-05-08 23:58 11.07054 -75.76434 18189 ft 456 kts 147°
2026-05-08 23:58 11.04244 -75.74973 17396 ft 453 kts 156°
2026-05-08 23:58 11.01242 -75.74047 16641 ft 451 kts 166°
2026-05-08 23:59 10.98156 -75.73542 15891 ft 447 kts 168°
2026-05-08 23:59 10.95134 -75.73070 15155 ft 443 kts 168°
2026-05-08 23:59 10.92100 -75.72592 14413 ft 440 kts 168°
2026-05-08 23:59 10.89090 -75.72113 13748 ft 435 kts 168°
2026-05-09 00:00 10.86116 -75.71635 13084 ft 430 kts 168°
2026-05-09 00:00 10.83185 -75.71164 12419 ft 424 kts 168°
2026-05-09 00:00 10.80292 -75.70698 11731 ft 418 kts 168°
2026-05-09 00:00 10.77436 -75.70238 11137 ft 411 kts 168°
2026-05-09 00:01 10.74671 -75.69796 11007 ft 393 kts 169°
2026-05-09 00:01 10.72033 -75.69378 10887 ft 375 kts 169°
2026-05-09 00:01 10.69512 -75.68977 10770 ft 359 kts 168°
2026-05-09 00:01 10.67097 -75.68593 10639 ft 344 kts 168°
2026-05-09 00:02 10.64779 -75.68224 10518 ft 331 kts 168°
2026-05-09 00:02 10.62545 -75.67868 10402 ft 319 kts 168°
2026-05-09 00:02 10.60389 -75.67525 10273 ft 309 kts 168°
2026-05-09 00:02 10.58316 -75.67195 10040 ft 303 kts 168°
2026-05-09 00:03 10.56246 -75.66863 9784 ft 302 kts 168°
2026-05-09 00:03 10.54169 -75.66526 9421 ft 301 kts 168°
2026-05-09 00:03 10.52101 -75.66192 9048 ft 299 kts 168°
2026-05-09 00:03 10.50043 -75.65860 8649 ft 298 kts 169°
2026-05-09 00:04 10.47996 -75.65533 8200 ft 299 kts 169°
2026-05-09 00:04 10.45962 -75.65207 7894 ft 294 kts 169°
2026-05-09 00:04 10.43942 -75.64886 7480 ft 294 kts 169°
2026-05-09 00:04 10.41927 -75.64565 7098 ft 292 kts 170°
2026-05-09 00:05 10.39923 -75.64243 6724 ft 291 kts 171°
2026-05-09 00:05 10.37933 -75.63923 6350 ft 289 kts 171°
2026-05-09 00:05 10.35979 -75.63612 5932 ft 288 kts 171°
2026-05-09 00:05 10.33973 -75.63294 5366 ft 293 kts 171°
2026-05-09 00:06 10.31963 -75.62974 4943 ft 292 kts 170°
2026-05-09 00:06 10.29968 -75.62652 4543 ft 289 kts 168°
2026-05-09 00:06 10.28140 -75.61890 4140 ft 284 kts 141°
2026-05-09 00:06 10.26949 -75.60370 3974 ft 270 kts 112°
2026-05-09 00:07 10.26474 -75.58606 3964 ft 251 kts 95°
2026-05-09 00:07 10.26509 -75.56881 3800 ft 241 kts 79°
2026-05-09 00:07 10.26992 -75.55277 3539 ft 236 kts 64°
2026-05-09 00:07 10.27872 -75.53877 3125 ft 235 kts 49°
2026-05-09 00:08 10.29079 -75.52785 2644 ft 229 kts 32°
2026-05-09 00:08 10.30449 -75.52103 2359 ft 217 kts 18°
2026-05-09 00:08 10.31865 -75.51803 2096 ft 200 kts
2026-05-09 00:08 10.33191 -75.51745 1878 ft 181 kts
2026-05-09 00:09 10.34383 -75.51696 1659 ft 162 kts
2026-05-09 00:09 10.35454 -75.51652 1462 ft 145 kts
2026-05-09 00:09 10.36443 -75.51611 1262 ft 140 kts
2026-05-09 00:09 10.37403 -75.51571 1079 ft 139 kts
2026-05-09 00:10 10.38359 -75.51532 920 ft 137 kts
2026-05-09 00:10 10.39324 -75.51497 788 ft 142 kts
2026-05-09 00:10 10.40284 -75.51454 586 ft 134 kts
2026-05-09 00:10 10.41211 -75.51401 462 ft 134 kts
2026-05-09 00:11 10.42153 -75.51369 300 ft 136 kts
2026-05-09 00:11 10.43079 -75.51331 109 ft 134 kts
2026-05-09 00:11 10.43952 -75.51300 49 ft 107 kts
2026-05-09 00:11 10.44405 -75.51285 51 ft 33 kts
2026-05-09 00:12 10.44597 -75.51278 51 ft 18 kts 358°
2026-05-09 00:12 10.44648 -75.51338 51 ft 7 kts 272°
2026-05-09 00:12 10.44636 -75.51383 51 ft 2 kts 255°
2026-05-09 00:13 10.44634 -75.51412 51 ft 7 kts 272°
2026-05-09 00:13 10.44640 -75.51457 51 ft 6 kts 283°
2026-05-09 00:13 10.44647 -75.51494 49 ft 5 kts 275°
2026-05-09 00:13 10.44648 -75.51526 51 ft 4 kts 272°
2026-05-09 00:14 10.44649 -75.51547 51 ft 2 kts 272°